Location: St. Louis
(38.6270°N, 90.1994°W)
Time: 20:49:50
(UTC-06:00)

Altair - Pass Details

Date: 03 December 2021
Orbit: 1501 x 1683 km, 47.2° (Epoch: 26 January)

Event Time Altitude Azimuth Distance (km) Brightness Sun altitude
Rises 21:50:41 0° 300° (WNW) 4,655 10.5 -59.6°
Reaches altitude 10° 21:53:43 10° 298° (WNW) 3,662 9.8 -60.1°
Enters shadow 21:54:41 14° 298° (WNW) 3,356 9.5 -60.3°
